Weather History for Tekamah, NE

Change the Weather History Date:

Wednesday, May 1, 2013

  Actual Average Record
Temperature  
Mean Temperature 42 °F -  
Max Temperature 51 °F 67 °F 94 °F (1959)
Min Temperature 33 °F 43 °F 27 °F (1966)
Degree Days  
Heating Degree Days 23    
Moisture  
Dew Point 36 °F    
Average Humidity 89    
Maximum Humidity 100    
Minimum Humidity 71    
Precipitation  
Precipitation 0.59 in - - ()
Sea Level Pressure  
Sea Level Pressure 30.27 in    
Wind  
Wind Speed 22 mph (North)    
Max Wind Speed 30 mph    
Max Gust Speed 38 mph    
Visibility 3 miles    
Events Fog , Rain , Snow , Thunderstorm    
Averages and records for this station are not official NWS values.
T = Trace of Precipitation, MM = Missing Value Source: NWS Daily Summary

Daily Weather History Graph

Daily Weather History Graph

Search for Another Location

Airport:

Trip Planner

Search our weather history database for the weather conditions in past years. The results will help you decide how hot, cold, wet, or windy it might be!

Date:

Astronomy

May. 01, 2013 Rise Set
Actual Time 6:20 AM CDT 8:23 PM CDT
Civil Twilight 5:50 AM CDT 8:53 PM CDT
Nautical Twilight 5:13 AM CDT 9:31 PM CDT
Astronomical Twilight 4:33 AM CDT 10:11 PM CDT
Moon 1:33 AM CDT (5/1) 12:00 PM CDT (5/1)
Length of Visible Light 15h 03m
Length of Day
14h 02m
Waning Gibbous, 59% of the Moon is Illuminated
May 1
Waning Gibbous
May 2
Last Quarter
May 9
New
May 17
First Quarter
May 24
Full

Hourly Weather History & Observations

Time (CDT) Temp. Windchill Dew Point Humidity Pressure Visibility Wind Dir Wind Speed Gust Speed Precip Events Conditions
12:40 AM 51.8 °F - 42.8 °F 71% 30.03 in 8.0 mi NNW 25.3 mph 29.9 mph 0.01 in Rain , Thunderstorm Light Thunderstorms and Rain
12:54 AM 51.1 °F - 43.0 °F 74% 29.97 in 5.0 mi North 28.8 mph 38.0 mph 0.04 in Rain Light Rain
2:54 AM 50.0 °F - 42.1 °F 74% 30.02 in 10.0 mi North 23.0 mph 31.1 mph 0.01 in   Overcast
3:49 AM 48.2 °F - 42.8 °F 82% 30.07 in 10.0 mi North 24.2 mph - N/A   Overcast
3:54 AM 48.0 °F - 43.0 °F 83% 30.06 in 10.0 mi North 23.0 mph 29.9 mph N/A   Overcast
4:04 AM 46.4 °F 37.9 °F 42.8 °F 87% 30.08 in 10.0 mi North 25.3 mph 33.4 mph N/A   Overcast
4:54 AM 46.9 °F - 41.0 °F 80% 30.08 in 10.0 mi North 21.9 mph - N/A   Overcast
5:33 AM 46.4 °F 38.7 °F 41.0 °F 81% 30.10 in 10.0 mi North 20.7 mph 31.1 mph N/A   Overcast
5:47 AM 46.4 °F 39.8 °F 42.8 °F 87% 30.10 in 10.0 mi North 16.1 mph 25.3 mph N/A   Overcast
5:54 AM 46.0 °F 38.8 °F 42.1 °F 86% 30.10 in 10.0 mi NNE 18.4 mph - N/A   Overcast
6:01 AM 46.4 °F 39.5 °F 41.0 °F 81% 30.13 in 10.0 mi North 17.3 mph 27.6 mph N/A   Overcast
6:08 AM 46.4 °F 38.7 °F 41.0 °F 81% 30.13 in 10.0 mi North 20.7 mph 26.5 mph N/A   Overcast
6:49 AM 44.6 °F 35.9 °F 41.0 °F 87% 30.15 in 5.0 mi North 23.0 mph - 0.00 in Rain Light Rain
7:18 AM 44.6 °F 36.4 °F 41.0 °F 87% 30.19 in 2.5 mi North 20.7 mph 27.6 mph 0.00 in   Overcast
7:26 AM 44.6 °F 35.5 °F 41.0 °F 87% 30.18 in 2.5 mi North 25.3 mph 33.4 mph 0.00 in   Overcast
7:30 AM 44.6 °F 35.3 °F 41.0 °F 87% 30.18 in 3.0 mi North 26.5 mph 33.4 mph 0.00 in Rain Light Rain
7:45 AM 44.6 °F 35.7 °F 41.0 °F 87% 30.20 in 3.0 mi North 24.2 mph 32.2 mph 0.00 in   Overcast
7:54 AM 44.1 °F 35.2 °F 41.0 °F 89% 30.18 in 2.5 mi North 23.0 mph 31.1 mph 0.00 in   Overcast
8:01 AM 44.6 °F 35.3 °F 41.0 °F 87% 30.18 in 1.8 mi North 26.5 mph 31.1 mph N/A   Overcast
8:44 AM 42.8 °F 33.1 °F 37.4 °F 81% 30.23 in 2.5 mi North 25.3 mph 34.5 mph 0.01 in Rain Light Rain
8:54 AM 41.0 °F 30.7 °F 37.0 °F 86% 30.22 in 2.5 mi North 25.3 mph 34.5 mph 0.01 in Rain Light Rain
9:07 AM 41.0 °F 31.1 °F 37.4 °F 87% 30.23 in 1.5 mi North 23.0 mph - 0.00 in   Overcast
9:41 AM 39.2 °F 28.3 °F 35.6 °F 87% 30.22 in 2.0 mi North 25.3 mph 34.5 mph 0.01 in Rain Light Rain
9:54 AM 39.9 °F 29.0 °F 36.0 °F 86% 30.25 in 2.0 mi North 26.5 mph 31.1 mph 0.01 in Rain Light Rain
11:10 AM 39.2 °F 29.0 °F 35.6 °F 87% 30.27 in 3.0 mi North 21.9 mph - 0.00 in Rain Light Rain
11:21 AM 37.4 °F 26.9 °F 35.6 °F 93% 30.27 in 2.0 mi North 20.7 mph - 0.00 in Snow Light Snow
11:31 AM 37.4 °F 26.6 °F 35.6 °F 93% 30.28 in 1.8 mi NNW 21.9 mph - 0.00 in Snow Light Snow
11:48 AM 37.4 °F 26.4 °F 33.8 °F 87% 30.26 in 2.0 mi North 23.0 mph - 0.03 in Rain Rain
11:54 AM 37.0 °F 27.0 °F 34.0 °F 89% 30.28 in 2.5 mi North 18.4 mph - 0.04 in Rain Light Rain
11:58 AM 37.4 °F 27.2 °F 33.8 °F 87% 30.27 in 3.0 mi North 19.6 mph - 0.00 in Rain Light Rain
12:07 PM 37.4 °F 27.8 °F 33.8 °F 87% 30.28 in 3.0 mi NNW 17.3 mph - 0.01 in Rain Light Rain
12:15 PM 35.6 °F 24.5 °F 33.8 °F 93% 30.28 in 1.8 mi North 20.7 mph - 0.04 in Rain Heavy Rain
12:37 PM 35.6 °F 26.2 °F 33.8 °F 93% 30.31 in 1.5 mi NNW 15.0 mph - 0.11 in Rain , Thunderstorm Thunderstorms and Rain
12:52 PM 35.6 °F 25.9 °F 32.0 °F 87% 30.30 in 1.2 mi North 16.1 mph - 0.19 in Rain Heavy Rain
12:54 PM 35.1 °F 24.8 °F 32.0 °F 89% 30.31 in 1.2 mi North 17.3 mph - 0.19 in Rain Heavy Rain
1:04 PM 33.8 °F 23.2 °F 32.0 °F 93% 30.30 in 1.5 mi North 17.3 mph - 0.04 in Rain Rain
1:25 PM 33.8 °F 22.2 °F 32.0 °F 93% 30.30 in 2.0 mi North 20.7 mph - 0.09 in Rain Heavy Rain
1:33 PM 33.8 °F 22.8 °F 32.0 °F 93% 30.30 in 1.5 mi North 18.4 mph - 0.10 in Snow Light Snow
1:51 PM 33.8 °F 23.2 °F 32.0 °F 93% 30.32 in 1.2 mi North 17.3 mph - 0.13 in Rain Rain
2:18 PM 33.8 °F 22.8 °F 32.0 °F 93% 30.33 in 0.8 mi North 18.4 mph - 0.04 in Snow Light Snow
2:54 PM 34.0 °F 22.1 °F 32.0 °F 92% 30.35 in 0.2 mi North 21.9 mph - 0.10 in Fog , Snow Snow
3:40 PM 33.8 °F 22.2 °F 33.8 °F 100% 30.36 in 0.8 mi North 20.7 mph - 0.05 in Snow Light Snow
3:54 PM 34.0 °F 22.1 °F 33.1 °F 96% 30.37 in 0.8 mi North 21.9 mph 27.6 mph 0.06 in Snow Light Snow
4:29 PM 33.8 °F 21.3 °F 32.0 °F 93% 30.36 in 1.0 mi North 24.2 mph 31.1 mph 0.03 in Rain Rain
4:54 PM 34.0 °F 22.1 °F 32.0 °F 92% 30.38 in 1.0 mi North 21.9 mph - 0.04 in Snow Light Snow
4:56 PM 33.8 °F 21.6 °F 32.0 °F 93% 30.37 in 0.8 mi North 23.0 mph - 0.01 in Snow Light Snow
5:18 PM 33.8 °F 21.0 °F 32.0 °F 93% 30.38 in 0.2 mi North 25.3 mph - 0.05 in Fog , Snow Snow
5:29 PM 33.8 °F 22.2 °F 32.0 °F 93% 30.38 in 0.2 mi North 20.7 mph 29.9 mph 0.05 in Fog , Snow Snow
6:03 PM 33.8 °F 22.8 °F 32.0 °F 93% 30.38 in 0.2 mi North 18.4 mph - 0.01 in Fog , Snow Light Snow
6:19 PM 33.8 °F 22.2 °F 32.0 °F 93% 30.39 in 0.5 mi North 20.7 mph - 0.01 in Fog , Snow Light Snow
6:33 PM 33.8 °F 23.2 °F 32.0 °F 93% 30.39 in 0.2 mi North 17.3 mph - 0.02 in Fog , Snow Snow
6:54 PM 34.0 °F 22.7 °F 32.0 °F 92% 30.40 in 0.2 mi North 19.6 mph - 0.03 in Fog , Snow Snow
7:31 PM 33.8 °F 20.8 °F 32.0 °F 93% 30.40 in 0.5 mi North 26.5 mph - 0.01 in Fog , Snow Light Snow
7:54 PM 35.1 °F 21.8 °F 33.1 °F 92% 30.40 in 0.5 mi North 29.9 mph 35.7 mph 0.01 in Fog , Snow Light Snow
8:20 PM 33.8 °F 20.5 °F 33.8 °F 100% 30.42 in 0.2 mi North 27.6 mph 32.2 mph 0.01 in Fog , Snow Light Snow
8:54 PM 34.0 °F 24.2 °F 33.1 °F 96% 30.44 in 0.8 mi North 15.0 mph - 0.02 in Snow Light Snow
9:05 PM 33.8 °F 24.8 °F 33.8 °F 100% 30.41 in 1.0 mi North 12.7 mph - 0.00 in Snow Light Snow
9:54 PM 34.0 °F 24.2 °F 33.1 °F 96% 30.45 in 0.8 mi North 15.0 mph - 0.02 in Snow Light Snow
10:06 PM 33.8 °F 24.3 °F 33.8 °F 100% 30.42 in 1.0 mi North 13.8 mph - 0.00 in Snow Light Snow
10:19 PM 33.8 °F 24.3 °F 33.8 °F 100% 30.43 in 1.0 mi North 13.8 mph - 0.00 in Snow Light Snow
10:33 PM 35.6 °F 24.2 °F 33.8 °F 93% 30.41 in 2.0 mi North 21.9 mph 28.8 mph 0.01 in Snow Light Snow
10:54 PM 35.1 °F 25.5 °F 34.0 °F 96% 30.45 in 3.0 mi North 15.0 mph - 0.01 in Snow Light Snow
11:03 PM 35.6 °F 26.2 °F 33.8 °F 93% 30.43 in 3.0 mi North 15.0 mph - 0.00 in Snow Light Snow
11:54 PM 36.0 °F 26.0 °F 33.1 °F 89% 30.46 in 6.0 mi North 17.3 mph - 0.00 in   Overcast